• In Uzbekistan
  • List of Countries
  • For 7 days
  • Water Temperature
  • Satellite Maps
  • Weather Map
  • Weather Widgets
  • user-avatar
    Login

    Hourly Weather Ioannina

    Today, 25 February, Sunday

    Time Temperature Precipitation Wind Pressure Humidity
    00:00 +4°C° 0.4 mm 1 mps 680 mmHg 94%
    01:00 +4°C° 0.4 mm 1 mps 680 mmHg 94%
    02:00 +4°C° 0.4 mm 1 mps 680 mmHg 94%
    03:00 +4°C° 0.4 mm 1 mps 680 mmHg 93%
    04:00 +4°C° 0.4 mm 1 mps 680 mmHg 93%
    05:00 +4°C° 0.7 mm 1 mps 680 mmHg 94%
    06:00 +3°C° 0.7 mm 2 mps 680 mmHg 94%
    07:00 +3°C° 0.7 mm 2 mps 680 mmHg 94%
    08:00 +4°C° 0.6 mm 2 mps 680 mmHg 92%
    09:00 +5°C° 0.6 mm 2 mps 680 mmHg 90%
    10:00 +4°C° 0.6 mm 3 mps 680 mmHg 87%
    11:00 +4°C° 0.9 mm 3 mps 680 mmHg 88%
    12:00 +4°C° 0.9 mm 3 mps 680 mmHg 88%
    13:00 +4°C° 0.9 mm 3 mps 679 mmHg 88%
    14:00 +4°C° 1.3 mm 3 mps 679 mmHg 90%
    15:00 +3°C° 1.3 mm 3 mps 678 mmHg 91%
    16:00 +3°C° 1.3 mm 3 mps 678 mmHg 92%
    17:00 +3°C° 2.6 mm 3 mps 677 mmHg 92%
    18:00 +2°C° 2.6 mm 3 mps 677 mmHg 93%
    19:00 +2°C° 2.6 mm 3 mps 676 mmHg 94%
    20:00 +2°C° 4.5 mm 3 mps 676 mmHg 94%
    21:00 +3°C° 4.5 mm 2 mps 675 mmHg 94%
    22:00 +2°C° 4.5 mm 2 mps 675 mmHg 95%
    23:00 +2°C° 5.4 mm 2 mps 674 mmHg 95%

    Tomorrow, 26 February, Monday

    Time Temperature Precipitation Wind Pressure Humidity
    00:00 +1°C° 5.4 mm 3 mps 673 mmHg 95%
    01:00 0°C° 5.4 mm 3 mps 672 mmHg 95%
    02:00 0°C° 3.9 mm 3 mps 672 mmHg 95%
    03:00 0°C° 3.9 mm 3 mps 671 mmHg 94%
    04:00 0°C° 3.9 mm 3 mps 671 mmHg 93%
    05:00 0°C° 0.7 mm 3 mps 671 mmHg 93%
    06:00 -1°C° 0.7 mm 3 mps 671 mmHg 93%
    07:00 -1°C° 0.7 mm 2 mps 671 mmHg 93%
    08:00 +1°C° 0.8 mm 2 mps 672 mmHg 93%
    09:00 +1°C° 0.8 mm 2 mps 673 mmHg 93%
    10:00 +1°C° 0.8 mm 2 mps 673 mmHg 93%
    11:00 +2°C° 0.2 mm 2 mps 673 mmHg 92%
    12:00 +2°C° 0.2 mm 2 mps 674 mmHg 91%
    13:00 +3°C° 0.2 mm 2 mps 674 mmHg 90%
    14:00 +3°C° 0.3 mm 2 mps 674 mmHg 91%
    15:00 +3°C° 0.3 mm 2 mps 674 mmHg 91%
    16:00 +3°C° 0.3 mm 2 mps 675 mmHg 92%
    17:00 +2°C° 0.5 mm 2 mps 675 mmHg 93%
    18:00 +2°C° 0.5 mm 2 mps 675 mmHg 93%
    19:00 +2°C° 0.5 mm 1 mps 675 mmHg 94%
    20:00 +2°C° 0.1 mm 1 mps 676 mmHg 94%
    21:00 +1°C° 0.1 mm 1 mps 676 mmHg 94%
    22:00 +1°C° 0.1 mm 1 mps 676 mmHg 94%
    23:00 +1°C° 0.1 mm 1 mps 677 mmHg 94%

    Day after tomorrow, 27 February, Tuesday

    Time Temperature Precipitation Wind Pressure Humidity
    00:00 -2°C° 0.1 mm 2 mps 677 mmHg 94%
    01:00 -2°C° 0.1 mm 2 mps 677 mmHg 94%
    02:00 -2°C° 0.1 mm 2 mps 677 mmHg 94%
    03:00 -2°C° 0.1 mm 2 mps 677 mmHg 94%
    04:00 -2°C° 0.1 mm 2 mps 677 mmHg 94%
    05:00 -2°C° 0 mm 2 mps 678 mmHg 93%
    06:00 0°C° 0 mm 1 mps 678 mmHg 93%
    07:00 0°C° 0 mm 1 mps 678 mmHg 92%
    08:00 +1°C° 0 mm 1 mps 679 mmHg 89%
    09:00 +1°C° 0 mm 2 mps 679 mmHg 86%
    10:00 +2°C° 0 mm 2 mps 680 mmHg 84%
    11:00 +2°C° 0.1 mm 2 mps 680 mmHg 84%
    12:00 +2°C° 0.1 mm 2 mps 680 mmHg 83%
    13:00 +3°C° 0.1 mm 2 mps 680 mmHg 83%
    14:00 +2°C° 0.1 mm 2 mps 680 mmHg 85%
    15:00 +2°C° 0.1 mm 2 mps 680 mmHg 86%
    16:00 +3°C° 0.1 mm 1 mps 680 mmHg 87%
    17:00 +3°C° 0.1 mm 1 mps 680 mmHg 88%
    18:00 +2°C° 0.1 mm 1 mps 680 mmHg 89%
    19:00 +1°C° 0.1 mm 1 mps 680 mmHg 90%
    20:00 +2°C° 0.5 mm 1 mps 680 mmHg 90%
    21:00 +2°C° 0.5 mm 1 mps 680 mmHg 90%
    22:00 +2°C° 0.5 mm 1 mps 680 mmHg 91%
    23:00 +2°C° 0.8 mm 1 mps 680 mmHg 91%

    28 February, Wednesday

    Time Temperature Precipitation Wind Pressure Humidity
    00:00 +2°C° 0.8 mm 1 mps 679 mmHg 91%
    01:00 +2°C° 0.8 mm 1 mps 679 mmHg 91%
    02:00 +2°C° 0.5 mm 1 mps 679 mmHg 91%
    03:00 +2°C° 0.5 mm 1 mps 678 mmHg 92%
    04:00 +2°C° 0.5 mm 1 mps 678 mmHg 92%
    05:00 +2°C° 0 mm 1 mps 678 mmHg 91%
    06:00 +2°C° 0 mm 1 mps 679 mmHg 91%
    07:00 +2°C° 0 mm 1 mps 679 mmHg 90%
    08:00 +3°C° 0 mm 1 mps 679 mmHg 89%
    09:00 +3°C° 0 mm 2 mps 680 mmHg 89%
    10:00 +5°C° 0 mm 2 mps 681 mmHg 89%
    11:00 +5°C° 0.1 mm 2 mps 681 mmHg 88%
    12:00 +4°C° 0.1 mm 3 mps 681 mmHg 87%
    13:00 +4°C° 0.1 mm 3 mps 681 mmHg 87%
    14:00 +3°C° 0.1 mm 3 mps 681 mmHg 85%
    15:00 +3°C° 0.1 mm 3 mps 682 mmHg 84%
    16:00 +3°C° 0.1 mm 3 mps 682 mmHg 82%
    17:00 +1°C° 0 mm 3 mps 683 mmHg 83%
    18:00 -1°C° 0 mm 3 mps 683 mmHg 85%
    19:00 -2°C° 0 mm 2 mps 684 mmHg 86%
    20:00 -3°C° 0 mm 2 mps 684 mmHg 85%
    21:00 -3°C° 0 mm 2 mps 685 mmHg 85%
    22:00 -4°C° 0 mm 2 mps 685 mmHg 84%
    23:00 -4°C° 0 mm 2 mps 685 mmHg 83%

    1 March, Thursday

    Time Temperature Precipitation Wind Pressure Humidity
    00:00 -4°C° 0 mm 2 mps 685 mmHg 81%
    01:00 -5°C° 0 mm 2 mps 685 mmHg 79%
    02:00 -3°C° 0 mm 1 mps 685 mmHg 78%
    03:00 -3°C° 0 mm 1 mps 685 mmHg 76%
    04:00 -3°C° 0 mm 1 mps 685 mmHg 75%
    05:00 -3°C° 0 mm 1 mps 685 mmHg 73%
    06:00 -2°C° 0 mm 1 mps 686 mmHg 72%
    07:00 -2°C° 0 mm 1 mps 686 mmHg 71%
    08:00 +1°C° 0 mm 1 mps 687 mmHg 68%
    09:00 +3°C° 0 mm 1 mps 687 mmHg 65%
    10:00 +5°C° 0 mm 1 mps 687 mmHg 62%
    11:00 +5°C° 0 mm 1 mps 687 mmHg 63%
    12:00 +6°C° 0 mm 1 mps 687 mmHg 65%
    13:00 +6°C° 0 mm 2 mps 686 mmHg 66%
    14:00 +6°C° 0 mm 1 mps 686 mmHg 69%
    15:00 +6°C° 0 mm 1 mps 686 mmHg 72%
    16:00 +6°C° 0 mm 1 mps 686 mmHg 75%
    17:00 +5°C° 0 mm 1 mps 685 mmHg 76%
    18:00 +4°C° 0 mm 1 mps 685 mmHg 77%
    19:00 +2°C° 0 mm 1 mps 685 mmHg 78%
    20:00 +2°C° 0 mm 1 mps 685 mmHg 78%
    21:00 +2°C° 0 mm 1 mps 685 mmHg 77%
    22:00 +2°C° 0 mm 1 mps 685 mmHg 77%
    23:00 +1°C° 0 mm 2 mps 685 mmHg 75%

    2 March, Friday

    Time Temperature Precipitation Wind Pressure Humidity
    00:00 +1°C° 0 mm 2 mps 684 mmHg 74%
    01:00 +1°C° 0 mm 2 mps 684 mmHg 72%
    02:00 +1°C° 0 mm 2 mps 683 mmHg 71%
    03:00 +1°C° 0 mm 2 mps 683 mmHg 71%
    04:00 +1°C° 0 mm 2 mps 682 mmHg 70%
    05:00 +1°C° 0 mm 2 mps 682 mmHg 71%
    06:00 +2°C° 0 mm 2 mps 682 mmHg 73%
    07:00 +3°C° 0 mm 1 mps 682 mmHg 74%
    08:00 +4°C° 0 mm 2 mps 683 mmHg 75%
    09:00 +5°C° 0 mm 2 mps 683 mmHg 76%
    10:00 +7°C° 0 mm 2 mps 683 mmHg 77%
    11:00 +7°C° 0 mm 2 mps 683 mmHg 77%
    12:00 +8°C° 0 mm 2 mps 683 mmHg 76%
    13:00 +8°C° 0 mm 2 mps 683 mmHg 76%
    14:00 +8°C° 0 mm 2 mps 682 mmHg 78%
    15:00 +8°C° 0 mm 2 mps 682 mmHg 79%
    16:00 +9°C° 0 mm 1 mps 682 mmHg 81%
    17:00 +8°C° 0 mm 1 mps 682 mmHg 84%
    18:00 +6°C° 0 mm 1 mps 682 mmHg 87%
    19:00 +5°C° 0 mm 1 mps 682 mmHg 90%
    20:00 +5°C° 0 mm 1 mps 682 mmHg 90%
    21:00 +5°C° 0 mm 1 mps 682 mmHg 90%
    22:00 +5°C° 0 mm 1 mps 682 mmHg 89%
    23:00 +5°C° 0 mm 1 mps 682 mmHg 88%
    Show more